Location: Mentone
(34.5413°N, 85.5351°W)
Time: 06:15:28
(UTC-05:00)

Tiros 1 despin weight - Visible Passes

Search period start: 01 September 2014 00:00
Search period end: 11 September 2014 00:00
Orbit: 601 x 653 km, 48.2° (Epoch: 31 August)

Date Brightness Start Highest point End Pass type
(mag) Time Alt. Az. Time Alt. Az. Time Alt. Az.
01 Sep ? 04:13:49 74° SSE 04:13:57 75° SE 04:18:39 10° NE visible
02 Sep ? 02:55:19 12° E 02:55:19 12° E 02:55:41 10° ENE visible
02 Sep ? 04:32:34 47° WNW 04:33:26 55° NNW 04:38:04 10° NE visible
03 Sep ? 03:14:01 22° ENE 03:14:01 22° ENE 03:15:42 10° ENE visible
03 Sep ? 04:51:16 23° WNW 04:53:06 31° NNW 04:57:19 10° NE visible
04 Sep ? 03:32:40 32° NE 03:32:40 32° NE 03:35:14 10° NE visible
04 Sep ? 05:09:54 12° WNW 05:12:57 21° NNW 05:16:33 10° NNE visible
05 Sep ? 03:51:16 33° N 03:51:16 33° N 03:54:32 10° NE visible
05 Sep ? 05:29:57 10° NW 05:32:56 17° N 05:35:57 10° NNE visible
06 Sep ? 04:09:50 24° NNW 04:09:55 24° NNW 04:13:45 10° NE visible
06 Sep ? 05:50:17 10° NW 05:52:59 15° N 05:55:43 10° NE visible
07 Sep ? 02:51:10 13° NE 02:51:10 13° NE 02:51:43 10° NE visible
07 Sep ? 04:28:24 16° NW 04:29:50 18° NNW 04:33:02 10° NNE visible
08 Sep ? 03:09:43 16° NNE 03:09:43 16° NNE 03:10:57 10° NE visible
08 Sep ? 04:47:08 10° NW 04:49:52 15° N 04:52:37 10° NNE visible
09 Sep ? 03:28:16 17° N 03:28:16 17° N 03:30:11 10° NNE visible
09 Sep ? 05:07:11 10° NNW 05:09:56 15° N 05:12:42 10° NE visible
10 Sep ? 03:46:50 16° N 03:46:50 16° N 03:49:36 10° NNE visible
10 Sep ? 05:26:44 10° NNW 05:29:57 18° NNE 05:33:11 10° ENE visible
